• In Italy
  • List of Countries
  • For 7 days
  • Water Temperature
  • Satellite Maps
  • Weather Map
  • Weather Widgets
  • user-avatar
    Login

    Hourly Weather Bolgary

    Today, 21 August, Tuesday

    Time Temperature Precipitation Wind Pressure Humidity
    00:00 +16°C° 0.1 mm 2 mps 744 mmHg 94%
    01:00 +16°C° 0.1 mm 2 mps 744 mmHg 95%
    02:00 +16°C° 0.1 mm 2 mps 744 mmHg 95%
    03:00 +16°C° 0.1 mm 2 mps 744 mmHg 95%
    04:00 +16°C° 0 mm 2 mps 744 mmHg 95%
    05:00 +17°C° 0 mm 2 mps 744 mmHg 94%
    06:00 +17°C° 0 mm 2 mps 744 mmHg 94%
    07:00 +18°C° 0.2 mm 2 mps 744 mmHg 90%
    08:00 +19°C° 0.2 mm 2 mps 744 mmHg 85%
    09:00 +21°C° 0.2 mm 2 mps 743 mmHg 80%
    10:00 +21°C° 0.4 mm 3 mps 743 mmHg 78%
    11:00 +22°C° 0.4 mm 3 mps 743 mmHg 75%
    12:00 +22°C° 0.4 mm 3 mps 743 mmHg 72%
    13:00 +23°C° 0.1 mm 4 mps 743 mmHg 70%
    14:00 +25°C° 0.1 mm 4 mps 742 mmHg 67%
    15:00 +25°C° 0.1 mm 4 mps 742 mmHg 64%
    16:00 +25°C° 0.1 mm 4 mps 741 mmHg 68%
    17:00 +23°C° 0.1 mm 4 mps 741 mmHg 72%
    18:00 +22°C° 0.1 mm 4 mps 740 mmHg 76%
    19:00 +21°C° 0 mm 4 mps 740 mmHg 78%
    20:00 +20°C° 0 mm 4 mps 740 mmHg 79%
    21:00 +19°C° 0 mm 4 mps 739 mmHg 81%
    22:00 +19°C° 0 mm 5 mps 739 mmHg 80%
    23:00 +19°C° 0 mm 5 mps 739 mmHg 79%

    Tomorrow, 22 August, Wednesday

    Time Temperature Precipitation Wind Pressure Humidity
    00:00 +17°C° 0 mm 5 mps 738 mmHg 78%
    01:00 +17°C° 0.2 mm 5 mps 738 mmHg 79%
    02:00 +17°C° 0.2 mm 5 mps 738 mmHg 80%
    03:00 +16°C° 0.2 mm 5 mps 738 mmHg 81%
    04:00 +16°C° 0.8 mm 5 mps 738 mmHg 85%
    05:00 +17°C° 0.8 mm 4 mps 738 mmHg 89%
    06:00 +15°C° 0.8 mm 4 mps 738 mmHg 93%
    07:00 +15°C° 0.5 mm 4 mps 738 mmHg 90%
    08:00 +15°C° 0.5 mm 4 mps 738 mmHg 88%
    09:00 +15°C° 0.5 mm 4 mps 738 mmHg 85%
    10:00 +15°C° 0.1 mm 4 mps 739 mmHg 79%
    11:00 +17°C° 0.1 mm 4 mps 739 mmHg 74%
    12:00 +18°C° 0.1 mm 4 mps 739 mmHg 68%
    13:00 +18°C° 0 mm 4 mps 740 mmHg 64%
    14:00 +19°C° 0 mm 4 mps 740 mmHg 59%
    15:00 +20°C° 0 mm 5 mps 740 mmHg 55%
    16:00 +18°C° 0.2 mm 4 mps 740 mmHg 62%
    17:00 +17°C° 0.2 mm 4 mps 740 mmHg 68%
    18:00 +16°C° 0.2 mm 3 mps 741 mmHg 75%
    19:00 +14°C° 0 mm 3 mps 741 mmHg 79%
    20:00 +12°C° 0 mm 3 mps 742 mmHg 83%
    21:00 +11°C° 0 mm 3 mps 742 mmHg 88%
    22:00 +11°C° 0 mm 3 mps 742 mmHg 89%
    23:00 +10°C° 0 mm 3 mps 743 mmHg 89%

    Day after tomorrow, 23 August, Thursday

    Time Temperature Precipitation Wind Pressure Humidity
    00:00 +10°C° 0 mm 4 mps 743 mmHg 90%
    01:00 +8°C° 0 mm 4 mps 743 mmHg 91%
    02:00 +8°C° 0 mm 4 mps 744 mmHg 92%
    03:00 +7°C° 0 mm 4 mps 744 mmHg 92%
    04:00 +8°C° 0 mm 4 mps 744 mmHg 91%
    05:00 +8°C° 0 mm 4 mps 745 mmHg 89%
    06:00 +8°C° 0 mm 5 mps 745 mmHg 88%
    07:00 +9°C° 0 mm 5 mps 745 mmHg 81%
    08:00 +10°C° 0 mm 6 mps 746 mmHg 73%
    09:00 +11°C° 0 mm 6 mps 746 mmHg 66%
    10:00 +13°C° 0 mm 6 mps 746 mmHg 62%
    11:00 +14°C° 0 mm 7 mps 746 mmHg 59%
    12:00 +15°C° 0 mm 7 mps 746 mmHg 56%
    13:00 +15°C° 0 mm 6 mps 746 mmHg 57%
    14:00 +15°C° 0 mm 6 mps 746 mmHg 57%
    15:00 +15°C° 0 mm 6 mps 746 mmHg 58%
    16:00 +14°C° 0 mm 5 mps 747 mmHg 60%
    17:00 +14°C° 0 mm 4 mps 747 mmHg 63%
    18:00 +13°C° 0 mm 4 mps 747 mmHg 65%
    19:00 +12°C° 0 mm 4 mps 747 mmHg 68%
    20:00 +11°C° 0 mm 3 mps 747 mmHg 71%
    21:00 +10°C° 0 mm 3 mps 747 mmHg 74%
    22:00 +10°C° 0 mm 3 mps 747 mmHg 74%
    23:00 +10°C° 0 mm 3 mps 747 mmHg 74%

    24 August, Friday

    Time Temperature Precipitation Wind Pressure Humidity
    00:00 +10°C° 0 mm 3 mps 747 mmHg 74%
    01:00 +10°C° 0 mm 3 mps 747 mmHg 74%
    02:00 +10°C° 0 mm 3 mps 747 mmHg 75%
    03:00 +10°C° 0 mm 4 mps 747 mmHg 75%
    04:00 +10°C° 0.3 mm 3 mps 747 mmHg 80%
    05:00 +10°C° 0.3 mm 3 mps 747 mmHg 85%
    06:00 +10°C° 0.3 mm 3 mps 747 mmHg 90%
    07:00 +11°C° 0.4 mm 3 mps 747 mmHg 90%
    08:00 +11°C° 0.4 mm 3 mps 747 mmHg 91%
    09:00 +11°C° 0.4 mm 4 mps 747 mmHg 92%
    10:00 +12°C° 0.6 mm 4 mps 746 mmHg 90%
    11:00 +13°C° 0.6 mm 4 mps 746 mmHg 88%
    12:00 +14°C° 0.6 mm 3 mps 746 mmHg 86%
    13:00 +14°C° 0.4 mm 3 mps 746 mmHg 86%
    14:00 +14°C° 0.4 mm 3 mps 746 mmHg 85%
    15:00 +14°C° 0.4 mm 3 mps 746 mmHg 85%
    16:00 +14°C° 0.1 mm 3 mps 746 mmHg 88%
    17:00 +14°C° 0.1 mm 2 mps 746 mmHg 90%
    18:00 +14°C° 0.1 mm 2 mps 747 mmHg 92%
    19:00 +13°C° 0 mm 2 mps 747 mmHg 93%
    20:00 +12°C° 0 mm 2 mps 747 mmHg 94%
    21:00 +12°C° 0 mm 1 mps 748 mmHg 95%
    22:00 +11°C° 0 mm 1 mps 748 mmHg 94%
    23:00 +11°C° 0 mm 1 mps 748 mmHg 93%

    25 August, Saturday

    Time Temperature Precipitation Wind Pressure Humidity
    00:00 +11°C° 0 mm 1 mps 748 mmHg 93%
    01:00 +10°C° 0 mm 1 mps 748 mmHg 92%
    02:00 +10°C° 0 mm 1 mps 749 mmHg 92%
    03:00 +9°C° 0 mm 0 mps 749 mmHg 92%
    04:00 +9°C° 0 mm 0 mps 749 mmHg 90%
    05:00 +10°C° 0 mm 0 mps 750 mmHg 89%
    06:00 +10°C° 0 mm 0 mps 750 mmHg 88%
    07:00 +12°C° 0 mm 0 mps 750 mmHg 81%
    08:00 +14°C° 0 mm 0 mps 750 mmHg 74%
    09:00 +16°C° 0 mm 0 mps 750 mmHg 68%
    10:00 +19°C° 0 mm 1 mps 750 mmHg 63%
    11:00 +21°C° 0 mm 1 mps 750 mmHg 58%
    12:00 +22°C° 0 mm 1 mps 750 mmHg 53%
    13:00 +22°C° 0 mm 1 mps 750 mmHg 53%
    14:00 +22°C° 0 mm 1 mps 750 mmHg 53%
    15:00 +23°C° 0 mm 1 mps 750 mmHg 53%
    16:00 +21°C° 0 mm 1 mps 750 mmHg 59%
    17:00 +18°C° 0 mm 0 mps 750 mmHg 65%
    18:00 +17°C° 0 mm 0 mps 749 mmHg 71%
    19:00 +16°C° 0 mm 0 mps 750 mmHg 74%
    20:00 +15°C° 0 mm 0 mps 750 mmHg 78%
    21:00 +14°C° 0 mm 0 mps 750 mmHg 81%
    22:00 +14°C° 0 mm 1 mps 750 mmHg 82%
    23:00 +14°C° 0 mm 1 mps 750 mmHg 84%

    26 August, Sunday

    Time Temperature Precipitation Wind Pressure Humidity
    00:00 +14°C° 0 mm 1 mps 750 mmHg 85%
    01:00 +14°C° 0 mm 1 mps 750 mmHg 87%
    02:00 +14°C° 0 mm 1 mps 750 mmHg 88%
    03:00 +13°C° 0 mm 1 mps 750 mmHg 89%
    04:00 +14°C° 0 mm 1 mps 751 mmHg 89%
    05:00 +13°C° 0 mm 0 mps 751 mmHg 88%
    06:00 +14°C° 0 mm 0 mps 751 mmHg 88%
    07:00 +16°C° 0 mm 0 mps 751 mmHg 82%
    08:00 +18°C° 0 mm 0 mps 751 mmHg 76%
    09:00 +20°C° 0 mm 0 mps 751 mmHg 70%
    10:00 +23°C° 0 mm 1 mps 751 mmHg 67%
    11:00 +24°C° 0 mm 1 mps 751 mmHg 63%
    12:00 +25°C° 0 mm 1 mps 751 mmHg 60%
    13:00 +25°C° 0 mm 1 mps 750 mmHg 59%
    14:00 +25°C° 0 mm 2 mps 750 mmHg 58%
    15:00 +25°C° 0 mm 2 mps 750 mmHg 57%
    16:00 +24°C° 0 mm 2 mps 750 mmHg 62%
    17:00 +23°C° 0 mm 2 mps 750 mmHg 67%
    18:00 +22°C° 0 mm 1 mps 750 mmHg 72%
    19:00 +21°C° 0 mm 1 mps 750 mmHg 75%
    20:00 +19°C° 0 mm 1 mps 750 mmHg 79%
    21:00 +18°C° 0 mm 1 mps 750 mmHg 82%
    22:00 +16°C° 0 mm 1 mps 750 mmHg 83%
    23:00 +16°C° 0 mm 1 mps 750 mmHg 83%
    Show more